This is the latest recevied weather packets stored in our database for station/object KC4JIR. If no packets are shown the sender has not sent any weather packets the latest 10 day(s).
| Time | Temp. | Humidity | Pressure | Rain* | Wind** | Luminosity | Snow |
|---|---|---|---|---|---|---|---|
| 1777503177 | 28.33° C | 62% | 1007.3 hPa | 0 mm | - | 33 W/m² | - |
| 1777502875 | 28.89° C | 61% | 1007.5 hPa | 0 mm | - | 54 W/m² | - |
| 1777502572 | 28.89° C | 60% | 1007.6 hPa | 0 mm | - | 57 W/m² | - |
| 1777502269 | 29.44° C | 59% | 1007.4 hPa | 0 mm | - | 108 W/m² | - |
| 1777501966 | 29.44° C | 59% | 1007.5 hPa | 0 mm | - | 172 W/m² | - |
| 1777501663 | 29.44° C | 58% | 1007.8 hPa | 0 mm | - | 201 W/m² | - |
| 1777501360 | 29.44° C | 58% | 1007.9 hPa | 0 mm | - | 181 W/m² | - |
| 1777501058 | 30° C | 58% | 1007.9 hPa | 0 mm | - | 76 W/m² | - |
| 1777500755 | 28.89° C | 58% | 1007.9 hPa | 0 mm | - | 95 W/m² | - |
| 1777500452 | 28.89° C | 58% | 1008 hPa | 0 mm | - | 166 W/m² | - |
| 1777500148 | 28.89° C | 60% | 1008.1 hPa | 0 mm | - | 127 W/m² | - |
| 1777499846 | 28.89° C | 58% | 1008.1 hPa | 0 mm | - | 96 W/m² | - |
| 1777499541 | 29.44° C | 58% | 1007.8 hPa | 0 mm | - | 127 W/m² | - |
| 1777499240 | 29.44° C | 58% | 1007.6 hPa | 0 mm | - | 127 W/m² | - |
| 1777498936 | 30° C | 56% | 1007.9 hPa | 0 mm | - | 104 W/m² | - |
| 1777498633 | 30° C | 57% | 1007.6 hPa | 0 mm | - | 264 W/m² | - |
| 1777498329 | 30.56° C | 56% | 1007.9 hPa | 0 mm | - | 138 W/m² | - |
| 1777498027 | 30° C | 54% | 1007.8 hPa | 0 mm | - | 437 W/m² | - |
| 1777497724 | 29.44° C | 57% | 1007.8 hPa | 0 mm | - | 135 W/m² | - |
| 1777497420 | 29.44° C | 57% | 1007.8 hPa | 0 mm | - | 135 W/m² | - |
| 1777497116 | 29.44° C | 57% | 1007.8 hPa | 0 mm | - | 120 W/m² | - |
| 1777496813 | 29.44° C | 56% | 1007.9 hPa | 0 mm | - | 148 W/m² | - |
| 1777496510 | 29.44° C | 57% | 1008.3 hPa | 0 mm | - | 150 W/m² | - |
| 1777496206 | 29.44° C | 56% | 1008 hPa | 0 mm | - | 502 W/m² | - |
| 1777495293 | 31.11° C | 53% | 1008.1 hPa | 0 mm | - | 141 W/m² | - |
* Rain latest hour (hover to see other rain measurements)
** Current wind speed in m/s (hover to see current wind gust speed)